Overview Statistics Trail Chart Weather Telemetry Raw packets
 

This is the latest recevied weather packets stored in our database for station/object IZ5MJO-13. If no packets are shown the sender has not sent any weather packets the latest 10 day(s).

<< 40 41 42 43 44 >>
Time Temp. Humidity Pressure Rain* Wind** Luminosity Snow
1787772186 26.67° C 48% 1006.6 hPa - - - -
1787771991 25.56° C 53% 1006.7 hPa - - - -
1787771091 25.56° C 52% 1007.1 hPa - - - -
1787770190 25.56° C 52% 1007.4 hPa - - - -
1787769290 26.11° C 51% 1007.1 hPa - - - -
1787768390 26.11° C 50% 1007.2 hPa - - - -
1787767490 26.67° C 48% 1006.6 hPa - - - -
1787766596 27.22° C 49% 1006.6 hPa - - - -
1787765696 28.33° C 45% 1006.6 hPa - - - -
1787764795 28.89° C 46% 1006.6 hPa - - - -
1787763895 29.44° C 45% 1006.6 hPa - - - -
1787762994 28.89° C 44% 1006.7 hPa - - - -
1787762094 29.44° C 45% 1006.9 hPa - - - -
1787761194 30.56° C 43% 1007.1 hPa - - - -
1787760294 30° C 42% 1007.2 hPa - - - -
1787759394 31.11° C 40% 1007.2 hPa - - - -
1787758493 33.33° C 38% 1007.1 hPa - - - -
1787757593 34.44° C 38% 1007 hPa - - - -
1787756692 35.56° C 35% 1006.9 hPa - - - -
1787755792 36.11° C 36% 1007.1 hPa - - - -
1787754892 36.11° C 35% 1007 hPa - - - -
1787753992 36.67° C 33% 1006.8 hPa - - - -
1787753091 36.67° C 38% 1006.9 hPa - - - -
1787752190 36.67° C 34% 1007.1 hPa - - - -
1787751290 38.33° C 33% 1007.1 hPa - - - -

* Rain since midnight (hover to see other rain measurements)
** Current wind speed in m/s (hover to see current wind gust speed)